Terminal Aerodrome Forecast
Issued by NWS Denver/Boulder, CO

Home | Current Version | Previous Version | Text Only | Print | Product List | Glossary On
Versions: 1 2 3 4 5 6 7 8 9 10 11 12 13 14 15 16 17 18 19 20 21 22 23 24 25 26 27 28 29 30 31 32 33 34 35 36 37 38 39 40 41 42 43 44 45 46 47 48 49 50
000
FTUS45 KBOU 222331
TAFDEN
TAF
KDEN 222331Z 2300/2406 30012KT P6SM VCSH SCT060 BKN080
     FM231000 35020G30KT P6SM VCSH BKN060 BKN090
     FM231600 35018G28KT P6SM SCT080 BKN140
     FM240100 27010KT P6SM SCT150 SCT250=

USA.gov is the U.S. government's official web portal to all federal, state and local government web resources and services.